Weather History for Klamath Falls, OR

Change the Weather History Date:

Sunday, March 24, 2013

  Actual Average Record
Temperature  
Mean Temperature 38 °F 39 °F  
Max Temperature 56 °F 52 °F 75 °F (1960)
Min Temperature 20 °F 27 °F 19 °F (1988)
Degree Days  
Heating Degree Days 27 26  
Month to date heating degree days 621 644  
Since 1 July heating degree days 5312 5485  
Cooling Degree Days 0 0  
Month to date cooling degree days 0 0  
Year to date cooling degree days 0 0  
Moisture  
Dew Point 24 °F    
Average Humidity 60    
Maximum Humidity 92    
Minimum Humidity 32    
Precipitation  
Precipitation 0.00 in 0.04 in 0.59 in (1993)
Month to date precipitation 0.25 0.93  
Year to date precipitation 1.03 4.70  
Sea Level Pressure  
Sea Level Pressure 30.10 in    
Wind  
Wind Speed 2 mph (WNW)    
Max Wind Speed 13 mph    
Max Gust Speed 15 mph    
Visibility 10 miles    
Events      
T = Trace of Precipitation, MM = Missing Value Source: NWS Daily Summary

Daily Weather History Graph

Daily Weather History Graph

Search for Another Location

Airport:

Trip Planner

Search our weather history database for the weather conditions in past years. The results will help you decide how hot, cold, wet, or windy it might be!

Date:

Astronomy

Mar. 24, 2013 Rise Set
Actual Time 7:02 AM PDT 7:24 PM PDT
Civil Twilight 6:34 AM PDT 7:52 PM PDT
Nautical Twilight 6:01 AM PDT 8:25 PM PDT
Astronomical Twilight 5:28 AM PDT 8:58 PM PDT
Moon 4:55 PM PDT (3/24) 5:18 AM PDT (3/24)
Length of Visible Light 13h 17m
Length of Day
12h 21m
Waxing Gibbous, 92% of the Moon is Illuminated
Mar 24
Waxing Gibbous
Mar 27
Full
Apr 2
Last Quarter
Apr 10
New
Apr 18
First Quarter

Hourly Weather History & Observations

Time (PDT) Temp. Windchill Dew Point Humidity Pressure Visibility Wind Dir Wind Speed Gust Speed Precip Events Conditions
12:53 AM 26.1 °F - 18.0 °F 71% 30.18 in 10.0 mi Calm Calm - N/A   Clear
1:53 AM 24.1 °F - 18.0 °F 77% 30.18 in 10.0 mi Calm Calm - N/A   Clear
2:53 AM 23.0 °F - 17.1 °F 78% 30.17 in 10.0 mi Calm Calm - N/A   Clear
3:53 AM 19.9 °F - 16.0 °F 85% 30.17 in 10.0 mi Calm Calm - N/A   Clear
4:53 AM 23.0 °F - 19.0 °F 85% 30.14 in 10.0 mi Calm Calm - N/A   Clear
5:53 AM 21.9 °F - 19.0 °F 89% 30.16 in 10.0 mi Calm Calm - N/A   Clear
6:01 AM 21.2 °F - 17.6 °F 86% 30.13 in 10.0 mi Calm Calm - N/A   Scattered Clouds
6:53 AM 21.0 °F - 18.0 °F 88% 30.17 in 10.0 mi Calm Calm - N/A   Scattered Clouds
7:53 AM 25.0 °F - 19.9 °F 81% 30.18 in 10.0 mi Calm Calm - N/A   Overcast
8:53 AM 33.1 °F - 24.1 °F 70% 30.17 in 10.0 mi Calm Calm - N/A   Overcast
9:53 AM 37.9 °F - 23.0 °F 55% 30.14 in 10.0 mi Calm Calm - N/A   Overcast
10:53 AM 42.1 °F - 23.0 °F 47% 30.15 in 10.0 mi Calm Calm - N/A   Overcast
11:53 AM 46.9 °F - 25.0 °F 42% 30.13 in 10.0 mi Calm Calm - N/A   Overcast
12:53 PM 50.0 °F - 25.0 °F 38% 30.10 in 10.0 mi Calm Calm - N/A   Overcast
1:53 PM 52.0 °F - 25.0 °F 35% 30.08 in 10.0 mi ENE 4.6 mph - N/A   Overcast
2:53 PM 53.1 °F - 25.0 °F 34% 30.05 in 10.0 mi WNW 3.5 mph - N/A   Overcast
3:53 PM 54.0 °F - 26.1 °F 34% 30.04 in 10.0 mi Variable 4.6 mph - N/A   Mostly Cloudy
4:53 PM 55.0 °F - 28.0 °F 35% 30.01 in 10.0 mi WSW 5.8 mph - N/A   Mostly Cloudy
5:53 PM 55.0 °F - 27.0 °F 34% 30.00 in 10.0 mi WSW 4.6 mph - N/A   Mostly Cloudy
6:53 PM 52.0 °F - 28.9 °F 41% 30.01 in 10.0 mi West 10.4 mph - N/A   Mostly Cloudy
7:53 PM 48.9 °F - 30.0 °F 48% 30.01 in 10.0 mi NW 9.2 mph - N/A   Mostly Cloudy
8:53 PM 46.9 °F - 30.0 °F 52% 30.00 in 7.0 mi NNW 10.4 mph - N/A   Mostly Cloudy
9:53 PM 43.0 °F 41.3 °F 30.9 °F 62% 30.01 in 7.0 mi WSW 3.5 mph - N/A   Mostly Cloudy
10:53 PM 39.0 °F - 28.9 °F 67% 30.01 in 10.0 mi Calm Calm - N/A   Scattered Clouds
11:53 PM 37.0 °F - 28.9 °F 73% 30.01 in 10.0 mi Calm Calm - N/A   Clear